TimeEDT,TemperatureF,Dew PointF,Humidity,Sea Level PressureIn,VisibilityMPH,Wind Direction,Wind SpeedMPH,Gust SpeedMPH,PrecipitationIn,Events,Conditions,WindDirDegrees,DateUTC
12:00 AM,70.0,64.9,84,29.98,-9999.0,Calm,Calm,-,N/A,,Clear,0,2013-05-21 04:00:00
1:00 AM,78.1,64.9,64,29.96,-9999.0,SW,6.9,-,N/A,,Clear,220,2013-05-21 05:00:00
2:00 AM,72.0,64.9,78,29.97,-9999.0,Calm,Calm,-,N/A,,Clear,0,2013-05-21 06:00:00
3:00 AM,71.1,63.0,75,29.97,-9999.0,WSW,3.5,-,N/A,,Clear,240,2013-05-21 07:00:00
4:00 AM,69.1,64.0,84,29.95,-9999.0,Calm,Calm,-,N/A,,Clear,0,2013-05-21 08:00:00
5:00 AM,73.9,64.9,73,29.96,-9999.0,West,4.6,-,N/A,,Clear,270,2013-05-21 09:00:00
6:00 AM,73.0,64.9,76,29.97,-9999.0,West,3.5,-,N/A,,Clear,260,2013-05-21 10:00:00
6:17 AM,73.4,64.4,73,29.99,-9999.0,West,3.5,-,N/A,,Mostly Cloudy,260,2013-05-21 10:17:00
6:26 AM,75.2,64.4,69,29.99,-9999.0,WSW,4.6,-,N/A,,Mostly Cloudy,250,2013-05-21 10:26:00
6:33 AM,77.0,66.2,69,29.99,-9999.0,WSW,5.8,-,N/A,,Overcast,250,2013-05-21 10:33:00
7:00 AM,75.9,66.0,71,29.98,-9999.0,West,6.9,-,N/A,,Overcast,270,2013-05-21 11:00:00
8:00 AM,77.0,66.9,71,29.98,-9999.0,West,6.9,-,N/A,,Overcast,260,2013-05-21 12:00:00
8:55 AM,78.8,68.0,69,29.99,-9999.0,West,8.1,-,N/A,,Overcast,270,2013-05-21 12:55:00
9:00 AM,80.1,68.0,67,29.99,-9999.0,WSW,6.9,-,N/A,,Overcast,250,2013-05-21 13:00:00
10:00 AM,86.0,68.0,55,29.98,-9999.0,SW,9.2,-,N/A,,Mostly Cloudy,220,2013-05-21 14:00:00
11:00 AM,89.1,68.0,50,29.95,-9999.0,SSW,5.8,-,N/A,,Mostly Cloudy,200,2013-05-21 15:00:00
11:43 AM,91.4,66.2,43,29.95,-9999.0,WSW,10.4,-,N/A,,Overcast,240,2013-05-21 15:43:00
12:00 PM,91.9,68.0,45,29.94,-9999.0,WSW,9.2,-,N/A,,Overcast,250,2013-05-21 16:00:00
1:00 PM,95.0,68.0,41,29.93,-9999.0,SW,11.5,-,N/A,,Overcast,220,2013-05-21 17:00:00
1:25 PM,95.0,68.0,41,29.93,-9999.0,SSW,10.4,27.6,N/A,,Overcast,210,2013-05-21 17:25:00
2:00 PM,95.0,66.2,39,29.92,-9999.0,West,9.2,16.1,N/A,,Overcast,260,2013-05-21 18:00:00
2:06 PM,95.0,66.9,40,29.91,-9999.0,SW,11.5,18.4,N/A,,Overcast,220,2013-05-21 18:06:00
2:23 PM,95.0,66.2,39,29.92,-9999.0,WSW,11.5,-,N/A,,Overcast,240,2013-05-21 18:23:00
3:00 PM,96.1,66.9,38,29.91,-9999.0,WSW,9.2,16.1,N/A,,Mostly Cloudy,240,2013-05-21 19:00:00
4:00 PM,95.0,66.9,40,29.89,-9999.0,SW,11.5,-,N/A,,Clear,220,2013-05-21 20:00:00
5:00 PM,95.0,66.9,40,29.88,-9999.0,SW,11.5,-,N/A,,Clear,220,2013-05-21 21:00:00
6:00 PM,93.0,66.9,42,29.86,-9999.0,SSW,12.7,-,N/A,,Clear,210,2013-05-21 22:00:00
7:00 PM,91.9,66.9,44,29.87,-9999.0,SW,9.2,-,N/A,,Clear,220,2013-05-21 23:00:00
8:00 PM,87.1,66.9,51,29.88,-9999.0,WSW,8.1,-,N/A,,Clear,250,2013-05-22 00:00:00
9:00 PM,81.0,68.0,65,29.88,-9999.0,SSE,4.6,-,N/A,,Clear,150,2013-05-22 01:00:00
10:00 PM,82.9,68.0,60,29.88,-9999.0,South,6.9,-,N/A,,Clear,180,2013-05-22 02:00:00
11:00 PM,79.0,66.9,66,29.88,-9999.0,SSW,4.6,-,N/A,,Clear,200,2013-05-22 03:00:00